Find Kosmos-1475

NORAD ID: 14173 Int'l Des: 1983-069 Owner: GUKOS Country: SU operational
LEOCIRCULAR

Aktuelle Ansicht

3D-Globus wird geladen...

Über Kosmos-1475

Beschreibung wird geladen...

Nächste Überflüge

Passes for default location (London). Set your location on the main map for personalized predictions.

Höhenverlauf

Loading altitude history...

Zweizeiliger Elementsatz

1 14173U 83069C 26151.22185263 .00000005 00000-0 13196-3 0 9994
2 14173 74.0235 176.7738 0021118 109.4654 320.8662 12.54580615964867
Epoch: 31. Mai 2026 • Age: 10 hours

Aktueller Status

Höhe 1460.5 km
Geschwindigkeit 7.13 km/s
Subsatellitenpunkt -31.25°S, 117.7°W
Startdatum 6. Juli 1983
Alter 42.9 years
Typ other

Technische Details

Klassifizierung Payload
Masse 60.00 kg
Trockenmasse 60.00 kg
Gesamtmasse 60.00 kg
Länge 0.80 m
Durchmesser 0.80 m
Spannweite 0.80 m
Form Poly
Hersteller NPOPM
Bus-Typ Strela-1 11F625
Phasenstatus In Orbit
Besitzer/Staat GUKOS/SU

Most Searched